Wind_Speed
27 27 26 25 24 24 24 24 23 22 21 21 22 22 24 24 24 23 20 18 18 17 16 15 13 11 11 9 8 8 7 7 7 6 6 6 5 5 5 5 6 7 7 7 7 7 7 7 6 7 7 6 6 5 6 6 7 6 4 4 4 2 3 3 3 3 3 4 4 3 3 3 4 4 4 4 4 3 3 3 4 5 5 6 6
28 27 26 26 25 25 25 24 24 23 22 22 22 22 24 25 25 25 21 19 19 18 17 15 14 13 12 11 10 9 9 9 8 8 8 7 6 6 5 6 6 6 7 7 8 8 7 7 7 8 7 7 7 7 7 7 8 6 4 4 4 3 3 3 4 4 4 4 3 3 4 4 4 5 4 4 4 3 3 2 3 4 4 4 5
27 27 27 26 26 26 25 25 24 23 22 22 21 22 23 25 26 25 23 21 19 18 17 16 15 14 14 13 12 11 11 10 10 9 9 8 8 7 6 6 6 7 8 9 9 9 8 8 8 8 8 8 8 9 8 7 8 7 5 5 4 4 4 3 4 5 4 3 4 4 4 4 4 5 4 4 4 4 3 3 3 3 3 3 3
27 27 27 27 27 26 26 25 25 24 23 22 21 21 23 25 26 25 23 21 20 19 18 17 17 16 15 14 14 13 13 12 11 10 10 9 8 8 8 7 7 8 9 10 11 11 10 8 9 10 11 11 10 10 10 8 9 7 5 6 5 5 5 4 5 6 5 4 4 5 5 5 4 4 4 4 4 4 4 3 3 4 3 2 3
28 28 28 28 27 27 27 26 25 24 23 21 21 21 22 24 25 24 24 23 22 21 21 20 19 19 17 16 16 15 14 13 12 12 11 11 10 9 9 9 9 9 10 11 11 12 12 11 13 15 14 14 12 10 11 10 9 9 7 6 6 6 5 5 6 6 5 4 5 5 5 6 5 4 4 4 4 4 3 3 4 4 3 3 3
27 28 28 28 28 27 27 26 25 24 22 21 21 21 22 24 24 24 24 23 22 23 23 22 21 20 19 18 17 16 15 15 14 13 13 12 12 12 11 10 10 10 11 12 12 13 14 14 16 16 14 15 12 9 11 12 10 10 9 8 7 7 6 5 6 7 6 6 6 6 6 6 5 5 4 4 4 4 4 3 3 4 4 3 3
25 26 27 27 28 27 27 26 25 24 22 21 21 21 22 23 24 24 23 23 21 22 24 23 22 22 21 20 19 18 17 17 16 15 15 15 15 14 13 12 12 11 11 13 14 14 16 16 16 15 14 16 12 8 9 10 11 11 11 10 9 8 7 6 6 7 6 6 7 6 7 6 5 6 5 4 4 4 4 4 3 4 4 4 3
24 25 26 27 27 28 27 26 25 24 22 21 21 21 22 23 23 23 23 23 21 22 23 24 23 23 22 21 20 20 19 19 18 17 16 17 17 17 15 14 13 13 12 13 14 16 17 17 16 15 14 16 14 11 10 8 9 9 10 10 10 10 9 8 8 8 7 7 8 7 7 7 6 6 5 5 4 4 5 4 4 4 4 4 4
24 25 25 26 27 27 27 26 25 24 22 21 21 21 22 23 23 23 23 23 22 23 24 24 24 23 22 22 21 21 21 20 18 18 19 19 19 18 17 17 15 13 13 14 15 16 17 17 17 16 15 17 16 16 15 11 9 9 9 10 10 10 10 10 10 9 9 9 8 8 8 7 6 6 5 5 5 5 5 5 5 5 5 5 4
22 24 24 25 25 26 26 25 24 23 22 21 21 21 22 23 23 23 23 23 23 24 25 25 24 23 22 22 22 22 21 20 19 19 20 21 21 20 19 18 16 15 15 16 16 17 18 18 18 18 17 18 18 18 18 15 13 11 10 10 11 10 10 13 14 10 9 9 8 8 8 8 7 6 6 6 5 5 5 5 5 5 5 5 5
15 17 20 21 22 23 24 23 23 23 22 21 21 21 22 23 24 24 24 24 24 24 24 24 23 22 22 21 21 21 21 20 20 21 22 22 22 21 21 20 18 18 18 17 17 17 18 19 19 19 19 19 20 20 19 18 17 15 12 11 11 12 11 12 15 13 10 9 9 9 10 10 9 8 8 7 6 6 6 5 5 5 5 5 5
6 8 11 15 18 20 21 22 22 22 22 22 22 23 24 25 25 25 25 24 24 23 22 22 22 20 19 20 19 19 20 20 20 21 22 22 22 21 21 21 21 21 20 18 18 18 19 19 19 20 19 20 22 22 20 19 18 18 16 14 13 14 13 11 12 13 11 10 11 11 10 10 10 9 8 8 8 7 7 7 6 6 6 5 5
9 8 7 7 10 13 16 18 19 20 21 23 24 25 25 26 26 25 24 24 24 23 22 21 18 16 14 16 18 19 19 19 21 23 24 23 22 22 22 22 23 24 22 20 20 20 19 20 20 20 20 21 23 25 24 22 20 20 19 18 16 15 16 14 12 12 12 12 13 12 11 10 10 9 9 8 8 8 8 8 7 7 6 6 6
10 11 12 11 10 9 10 12 15 18 20 22 23 24 25 25 25 24 23 24 24 23 23 20 16 14 10 8 11 16 18 20 23 24 24 23 22 23 24 24 25 25 24 22 22 21 21 20 20 21 21 22 23 25 26 26 24 23 22 21 20 16 17 17 15 14 13 13 13 13 12 11 10 10 10 9 9 9 8 8 8 8 7 7 7
7 8 9 11 12 12 11 11 12 14 17 19 20 21 23 24 24 24 23 23 23 22 23 23 19 14 7 4 4 6 10 17 25 28 25 24 24 25 25 26 27 25 25 25 24 23 22 22 22 23 22 22 23 24 25 25 25 25 24 23 23 20 18 19 17 16 15 14 14 13 13 12 11 10 10 10 9 9 9 9 8 8 8 7 7
8 7 7 8 9 10 11 11 12 12 13 15 17 19 20 22 23 24 23 21 21 22 24 26 25 17 7 2 1 0 4 9 16 24 27 27 27 27 27 27 27 26 26 26 26 25 24 24 24 24 24 24 23 23 24 24 26 26 26 26 26 24 21 20 20 18 17 16 15 14 13 13 12 11 10 10 10 9 9 9 9 8 8 8 8
14 12 10 9 8 9 9 10 11 11 11 12 14 17 18 20 21 23 24 22 21 23 24 25 29 28 17 5 1 2 4 3 5 12 21 27 29 28 28 29 28 27 27 28 28 27 26 26 26 25 25 25 25 25 24 25 26 27 27 27 28 27 25 23 22 20 19 18 16 15 14 14 13 12 11 10 10 10 10 10 9 9 9 8 8
16 15 14 12 11 10 10 9 10 11 11 11 11 12 15 18 20 21 23 24 23 22 22 24 28 33 31 20 12 7 3 1 1 4 9 20 28 29 29 30 30 29 29 29 29 29 29 28 28 27 27 27 27 26 26 25 26 27 28 29 29 30 28 26 25 23 22 20 18 17 16 14 14 13 12 11 11 10 10 10 10 9 9 9 9
12 13 13 13 13 12 11 11 11 11 11 11 11 11 12 14 18 20 21 23 24 22 22 24 25 29 34 34 29 20 12 7 3 3 5 9 19 27 30 30 29 30 30 32 31 30 30 30 30 30 29 29 28 28 27 26 26 27 28 30 31 31 30 29 27 25 24 22 19 18 17 16 15 14 13 12 12 12 12 11 11 10 10 10 9
11 11 11 11 11 12 12 13 12 12 13 12 12 12 12 12 14 17 18 20 22 23 24 25 23 24 29 34 36 33 27 20 13 8 4 4 8 16 25 30 30 30 31 33 34 33 33 32 32 32 31 30 30 30 29 27 27 27 28 30 32 32 31 30 30 28 26 23 21 19 18 17 17 15 14 13 13 13 13 12 12 11 11 11 10
13 12 12 11 11 10 10 11 12 13 14 14 13 13 13 13 13 15 16 18 19 21 24 25 25 25 26 28 30 32 32 30 24 17 9 7 5 4 12 20 23 30 36 35 35 36 36 35 33 32 32 32 32 31 30 29 28 28 29 30 32 32 31 30 32 32 29 25 23 21 19 18 18 17 15 14 14 14 14 14 13 12 12 11 11
17 16 14 13 12 11 10 10 10 11 12 13 13 13 13 13 13 14 15 16 18 19 21 24 26 28 28 26 25 24 23 22 22 21 16 11 8 6 9 12 13 24 34 38 39 39 38 36 35 34 34 34 34 33 32 31 30 30 30 30 32 32 31 31 33 33 31 29 27 25 22 20 19 18 17 16 15 15 16 15 15 14 13 13 12
24 22 21 18 15 13 11 10 10 11 12 13 14 15 15 15 14 14 14 15 16 17 19 21 23 26 28 29 28 25 22 18 19 22 18 12 9 8 11 14 14 20 27 32 37 40 40 39 38 38 37 36 36 35 35 34 32 31 30 31 32 33 33 33 34 34 33 31 30 29 25 23 22 20 18 17 17 17 17 17 17 16 15 14 14
28 28 27 24 22 19 15 13 13 13 14 15 16 16 15 15 15 15 15 15 16 16 18 19 20 23 26 27 30 30 30 28 25 25 23 20 16 10 10 14 13 17 24 26 28 33 38 41 41 41 40 39 38 37 36 36 35 33 32 32 33 34 35 36 36 35 34 33 31 30 28 26 26 24 21 19 18 19 18 18 18 17 17 16 15
28 28 27 26 25 24 21 19 18 17 17 16 16 16 15 15 15 16 16 17 17 17 18 18 19 20 23 25 27 29 30 30 29 29 28 27 21 13 13 14 11 13 19 22 23 25 31 37 41 42 42 41 40 39 39 38 37 35 33 33 34 35 37 38 38 38 37 35 33 32 30 29 28 27 25 22 20 20 20 19 18 18 17 17 16
25 25 24 24 24 23 23 22 21 21 20 18 17 16 16 16 16 16 17 17 17 18 19 19 19 20 21 22 24 26 28 29 29 30 28 27 24 17 14 14 14 14 14 16 18 19 22 29 36 40 43 43 42 41 41 41 39 38 35 35 36 36 37 38 40 40 40 38 36 34 33 31 31 30 28 26 23 21 21 20 19 18 18 17 16
22 22 21 21 22 21 21 22 22 22 21 21 20 19 18 17 18 18 18 18 18 19 19 20 21 21 21 22 23 25 25 26 27 28 28 28 28 26 19 11 10 11 9 12 16 19 23 25 29 36 41 43 44 43 42 42 42 40 38 37 38 37 37 38 39 41 41 40 38 36 34 33 32 31 30 29 27 22 21 22 20 19 19 17 17
20 21 21 21 21 21 21 21 21 21 21 21 21 21 20 19 19 19 19 19 20 20 20 21 21 21 22 22 24 25 25 24 25 26 27 27 28 30 26 17 11 8 7 9 10 14 23 26 26 31 36 40 43 44 44 44 43 41 40 40 40 39 38 38 39 40 40 39 37 36 34 34 33 32 31 31 30 25 21 22 22 20 20 19 18
21 21 21 21 21 21 21 21 21 22 22 22 22 22 21 21 20 21 21 21 21 21 21 22 22 22 22 22 23 25 25 24 25 25 25 27 27 28 29 26 19 11 7 9 7 8 17 25 28 30 32 36 40 43 45 45 44 43 42 42 42 42 41 40 39 38 39 39 37 35 34 33 32 32 32 32 33 29 24 23 22 21 21 21 19
21 22 22 23 23 23 23 23 23 23 23 23 23 23 23 23 23 22 22 22 22 22 22 23 23 23 24 24 24 25 25 25 25 25 25 25 26 27 29 30 28 20 12 10 10 13 17 23 29 30 31 34 37 40 44 45 44 45 44 44 44 44 43 41 39 38 38 38 37 36 34 34 32 31 32 32 34 32 26 23 23 21 21 21 20
22 23 24 24 25 25 25 25 25 25 25 24 24 24 24 24 25 25 24 24 25 24 24 23 23 24 25 26 26 26 25 25 26 26 25 25 26 27 27 29 30 30 24 14 11 16 19 21 27 30 31 34 36 38 42 44 44 45 46 46 46 46 44 42 40 39 39 39 38 37 35 34 32 31 32 32 34 33 28 24 24 23 22 22 20
22 23 23 24 25 26 26 27 28 28 28 28 27 27 26 26 26 26 26 26 26 27 27 27 25 25 26 27 27 27 27 27 28 27 27 26 26 26 27 28 30 31 30 22 13 16 21 23 27 30 30 33 36 38 41 43 43 45 47 47 47 46 45 44 42 41 40 40 40 39 37 35 33 32 33 34 34 34 31 26 25 24 23 23 22
23 23 23 23 24 25 25 26 27 28 29 30 30 30 30 30 29 28 28 28 28 28 29 29 29 28 28 28 28 27 27 28 29 29 29 28 27 27 26 27 29 30 29 26 18 17 22 26 27 28 29 31 36 39 40 41 43 44 46 47 47 47 46 46 45 43 42 41 41 40 38 36 35 33 34 34 35 35 33 29 26 25 24 23 23
24 24 25 25 25 26 26 26 27 27 28 29 30 31 32 32 32 32 31 30 30 31 30 31 30 30 30 30 29 28 27 28 29 29 30 29 28 29 27 26 28 29 27 28 24 19 21 25 27 28 29 30 34 38 39 41 43 43 46 48 48 48 49 48 47 45 44 43 42 41 40 38 36 35 35 35 35 35 34 31 28 27 26 24 23
24 25 26 27 28 28 29 29 29 30 31 31 31 32 32 33 34 35 34 33 32 32 32 33 32 31 31 31 31 30 29 29 30 29 29 30 29 30 30 28 28 28 27 28 28 24 23 25 26 28 30 31 34 37 38 41 42 43 46 48 48 49 50 49 48 47 46 44 43 42 41 39 38 37 36 36 35 35 35 34 31 29 28 27 25
26 27 28 29 30 31 31 32 33 33 34 34 34 34 34 33 34 35 36 35 34 34 33 34 34 33 33 34 34 33 31 30 31 30 28 29 30 30 31 30 29 29 28 27 29 30 26 25 26 27 29 31 35 37 37 38 41 43 45 46 46 48 49 48 48 48 47 45 44 43 42 40 39 38 38 37 36 36 36 35 33 30 29 30 27
29 30 31 32 32 33 33 34 34 35 35 35 36 36 35 34 33 33 34 34 34 35 35 35 35 35 35 36 37 35 33 32 32 32 30 29 29 29 30 31 30 29 29 27 29 31 29 28 28 26 26 30 33 35 35 36 37 39 41 43 44 45 45 45 46 47 47 45 44 44 43 42 41 40 39 39 38 37 36 36 34 30 30 32 30
32 33 34 35 35 35 35 35 34 35 35 35 35 35 35 33 32 33 33 33 33 34 35 35 36 36 36 37 38 37 35 34 34 34 32 31 31 30 30 31 30 29 29 28 28 29 30 31 30 27 26 29 31 33 34 35 36 37 37 38 40 41 40 40 42 45 46 46 45 45 44 44 43 42 39 39 39 38 37 38 36 32 31 33 31
33 35 36 37 37 36 36 36 35 35 35 36 36 35 33 32 31 31 33 33 34 34 35 35 36 36 36 37 38 38 36 36 36 36 34 33 32 32 32 31 30 28 29 30 28 27 28 29 29 27 27 28 30 33 34 34 35 37 38 35 33 35 38 39 42 44 46 48 47 47 46 45 43 42 38 36 38 40 39 40 39 36 34 34 33
34 35 36 37 37 37 36 36 36 37 37 39 38 34 32 31 30 31 32 33 34 35 36 36 37 37 37 37 38 38 38 38 38 38 37 35 33 33 33 31 29 28 29 29 28 27 27 27 27 27 25 25 27 30 30 27 29 34 36 32 29 32 37 40 43 44 45 47 48 47 47 45 43 42 40 37 39 41 40 40 41 39 36 36 36
35 36 36 35 35 36 37 37 38 38 39 40 39 34 31 32 32 32 32 32 33 35 36 38 39 39 39 39 38 38 38 38 39 40 39 38 36 36 35 33 30 29 29 29 27 26 25 25 25 25 23 22 25 26 25 27 31 31 29 30 30 31 32 34 38 42 42 42 43 44 45 45 44 42 42 42 42 41 40 41 41 40 39 38 39
37 37 37 36 35 35 36 38 39 39 39 40 39 35 32 31 32 33 34 34 34 35 37 38 40 41 40 40 40 40 40 39 39 40 41 41 40 40 40 37 34 32 31 29 28 27 25 23 24 24 20 20 25 27 27 31 34 29 26 30 31 28 25 24 30 39 42 40 37 39 42 44 43 43 44 46 46 43 42 43 43 43 42 41 41
37 37 37 37 37 36 35 37 38 39 40 40 36 33 32 31 31 33 35 37 37 37 37 38 40 41 41 41 40 41 41 41 40 40 39 40 40 41 42 41 39 37 35 33 31 29 27 24 26 25 21 22 28 28 28 31 31 30 31 32 30 26 24 20 19 26 37 41 36 34 38 41 43 45 47 48 48 46 47 48 47 46 45 44 42
37 37 37 37 38 37 35 36 38 39 40 38 33 31 32 31 31 31 34 37 39 40 40 39 40 41 41 42 41 41 42 42 42 41 40 40 40 40 41 42 42 42 41 40 38 35 30 27 28 28 26 27 30 28 28 29 29 31 32 31 30 31 28 25 22 22 30 40 38 32 35 40 42 45 48 50 51 50 49 50 49 48 47 45 43
36 37 37 37 38 36 34 34 37 39 39 35 31 31 32 32 32 32 34 37 40 41 43 42 42 42 41 41 41 42 42 41 41 41 40 41 41 40 40 41 43 44 44 46 46 44 40 35 31 32 34 32 31 29 29 29 29 31 31 31 33 33 29 30 33 28 23 30 38 35 34 40 44 46 49 51 51 50 49 49 50 49 48 47 46
36 37 38 38 37 36 33 33 35 38 37 33 30 32 33 33 33 33 34 36 36 37 39 39 40 41 40 39 40 42 42 41 41 42 42 43 42 41 39 39 41 43 43 45 46 47 47 43 39 40 42 39 35 35 32 29 31 34 34 34 34 34 34 36 37 30 24 31 41 35 28 37 45 44 47 49 47 48 51 51 51 51 50 50 48
35 36 37 37 37 36 34 32 35 38 37 31 30 33 33 33 33 33 33 33 34 35 37 36 37 39 40 41 42 43 44 44 43 41 41 41 41 41 40 40 41 42 43 44 44 45 45 45 44 46 48 45 42 41 38 33 34 37 37 39 39 38 39 38 34 31 30 36 41 34 24 31 39 41 45 47 44 46 51 52 51 52 50 49 49
34 34 35 35 35 35 35 33 34 39 39 32 30 32 32 31 33 32 32 33 34 35 36 36 35 36 37 38 39 41 43 44 43 39 38 39 39 40 41 41 41 41 42 44 45 46 46 45 45 47 50 50 46 45 44 38 36 36 36 37 37 36 33 29 27 31 32 32 39 39 28 24 29 38 42 42 40 44 48 49 51 52 50 48 48
33 33 34 35 33 33 35 34 33 38 40 34 29 31 32 32 32 32 31 32 32 33 34 34 33 33 33 33 34 36 38 39 38 36 35 36 37 39 41 42 41 40 41 42 43 45 47 48 48 49 51 53 50 49 48 44 39 36 32 30 31 32 27 18 17 25 29 30 38 43 33 23 27 35 35 33 37 43 43 44 49 50 47 45 44
33 33 33 34 34 32 33 34 33 35 39 35 30 31 33 32 32 32 31 31 31 32 33 33 32 33 33 32 32 33 34 35 35 35 34 34 36 37 38 39 39 40 42 43 41 42 42 44 46 49 51 53 51 49 48 46 43 39 35 33 33 31 26 20 18 21 23 29 38 41 32 26 28 31 27 22 26 36 39 38 41 44 43 40 37
32 33 32 33 34 32 32 34 33 32 36 37 33 32 33 31 30 31 31 31 31 31 32 33 32 32 33 33 32 32 34 35 35 35 34 34 35 37 37 36 35 38 41 41 39 39 39 40 42 45 47 50 49 47 47 47 46 43 41 40 38 33 29 28 26 18 13 22 36 40 32 26 26 29 26 16 10 19 31 34 35 39 41 40 38
Wind_Direction
227 227 226 227 230 234 237 238 237 237 236 237 237 235 233 231 233 233 224 215 211 207 208 211 212 213 214 217 218 224 229 231 236 240 245 248 249 248 238 234 227 221 217 196 194 208 204 206 211 207 206 204 204 204 199 194 189 187 189 199 209 199 181 187 183 177 169 163 165 157 150 144 141 147 143 139 136 140 161 160 166 169 166 169 168
229 230 231 232 235 238 239 239 239 238 238 239 238 238 237 234 233 234 229 221 217 214 214 214 215 217 218 219 220 225 231 234 239 242 246 250 253 257 253 246 238 227 222 209 197 203 213 214 212 211 212 210 211 207 202 201 198 203 212 205 204 204 197 194 190 185 178 175 182 179 174 167 158 161 153 147 154 152 153 149 149 147 145 151 144
233 233 234 237 239 241 241 240 240 240 239 241 242 242 241 239 237 237 234 226 221 220 220 220 219 221 223 223 223 225 230 235 239 244 248 251 254 257 257 251 243 232 222 217 204 197 210 217 214 217 218 219 220 217 211 199 198 210 214 204 208 213 208 210 202 196 188 185 195 189 184 181 171 169 165 162 168 171 172 171 166 154 146 146 137
236 238 239 241 242 243 244 242 242 241 240 242 245 246 245 242 239 239 239 233 228 227 225 224 225 226 226 226 225 225 230 235 240 246 250 253 256 257 256 249 242 233 224 223 215 203 199 204 213 213 214 215 213 221 225 208 202 212 211 206 215 216 214 216 209 208 208 205 203 195 190 183 173 172 172 169 168 174 172 164 172 177 182 193 187
238 241 243 244 244 245 246 246 244 242 241 243 245 247 246 241 238 237 239 238 235 232 227 226 228 230 230 228 227 227 229 233 239 244 250 253 256 255 254 249 240 233 227 224 222 214 200 197 211 212 213 212 205 218 229 221 216 220 221 220 221 223 226 223 212 212 213 209 202 192 191 184 175 180 180 179 175 176 175 165 176 177 176 186 189
243 243 244 244 245 245 247 247 246 242 242 245 246 247 246 242 238 237 240 242 241 236 229 227 229 231 231 229 228 227 228 233 237 241 246 251 254 254 251 248 242 234 231 226 222 219 210 210 218 218 216 211 210 226 227 224 225 224 226 227 228 229 225 222 214 216 216 209 204 195 194 186 178 186 181 182 182 179 182 178 183 181 178 175 172
245 244 244 244 245 245 247 248 246 243 242 245 247 247 246 244 241 239 241 243 243 237 231 231 232 230 228 229 228 227 229 231 233 237 243 248 250 252 250 248 245 238 235 231 225 222 219 222 228 229 223 214 216 225 218 222 226 224 227 228 230 228 223 226 220 215 215 206 203 199 200 196 190 197 193 192 191 186 186 184 182 180 179 178 169
244 244 244 244 245 246 247 247 245 244 244 245 247 248 245 243 242 242 242 241 240 236 234 235 235 232 229 229 229 228 229 230 231 235 240 244 246 247 247 247 245 241 237 234 230 226 224 227 230 234 229 219 217 211 205 214 221 222 224 225 227 224 223 230 225 218 215 210 210 207 203 203 200 200 201 201 198 198 198 194 191 186 182 181 178
242 244 244 244 244 244 244 243 242 243 245 246 248 249 246 242 241 241 240 239 239 237 236 236 235 233 230 230 230 229 230 230 231 235 238 242 243 243 245 245 244 242 239 235 232 229 228 228 229 230 226 220 216 210 205 204 209 220 224 222 221 220 225 226 222 220 212 207 205 202 200 200 198 193 199 207 208 212 214 209 206 203 200 195 192
242 243 244 243 241 241 240 239 239 242 245 248 249 247 244 242 241 239 238 238 240 241 240 238 235 234 232 231 230 230 232 233 233 234 237 239 241 243 244 244 243 242 239 235 233 231 230 230 229 228 225 221 218 214 214 209 205 211 219 223 221 220 228 225 218 209 197 198 198 203 213 213 209 206 212 219 219 221 221 217 213 209 207 203 197
245 244 242 241 239 239 241 240 240 241 241 243 244 244 242 240 239 238 236 238 242 245 244 240 235 233 233 231 231 232 233 235 236 236 238 241 242 242 242 243 245 243 239 234 232 232 231 231 230 229 229 223 218 216 218 217 211 209 210 217 224 224 228 230 226 214 199 203 210 217 228 226 222 222 223 223 219 220 219 216 216 211 209 205 200
281 265 252 244 239 236 237 239 240 240 240 241 243 246 245 243 240 237 235 236 238 241 243 239 232 230 231 232 232 233 235 236 238 239 241 242 241 240 241 243 245 244 241 236 233 232 231 231 231 231 231 224 218 217 218 218 217 217 214 211 219 228 229 227 227 223 214 217 224 226 229 228 225 224 224 223 220 219 216 213 214 215 214 213 210
12 356 333 294 266 251 243 239 239 239 242 246 246 246 245 244 241 237 235 234 235 236 236 232 226 225 230 236 237 236 236 237 239 241 241 242 241 240 241 242 243 244 244 241 237 234 232 230 231 231 231 226 221 220 220 222 223 223 220 212 211 224 230 224 221 227 227 226 228 227 228 227 224 224 224 225 225 222 216 213 212 213 216 217 216
17 12 7 1 347 322 293 270 255 246 243 243 243 241 241 241 240 237 235 235 236 237 230 222 216 218 225 242 251 247 244 242 241 242 241 241 241 240 241 241 242 244 245 244 241 238 235 232 231 230 231 229 226 225 226 228 226 222 221 214 209 216 226 224 222 228 227 224 225 225 226 225 221 223 227 228 228 224 219 215 212 211 215 217 217
13 6 4 5 3 356 346 327 300 276 260 251 246 244 243 242 241 240 238 234 234 236 231 225 217 213 219 248 259 259 257 250 245 242 239 240 241 241 242 241 243 244 245 246 244 242 239 235 232 231 232 231 229 229 230 229 225 220 219 215 210 211 217 220 221 225 224 223 225 224 222 221 219 222 227 229 228 225 221 217 214 213 215 219 217
22 12 6 4 2 357 354 348 339 323 299 279 267 260 254 250 247 244 240 234 233 235 235 230 221 213 210 227 208 253 267 256 250 247 240 238 240 241 242 243 243 243 243 244 244 244 243 239 236 233 234 233 231 231 231 229 226 223 220 216 212 209 211 216 219 221 224 224 224 223 221 220 217 218 223 227 225 223 221 218 215 216 216 217 215
35 27 19 10 5 359 353 348 346 343 334 317 295 282 273 266 260 253 246 241 240 241 240 233 226 224 220 208 170 235 248 259 277 261 242 235 238 239 240 243 244 244 244 245 245 245 244 243 241 237 236 235 233 232 232 230 229 228 224 218 215 212 210 214 216 219 221 221 221 221 223 224 221 218 218 222 224 220 220 220 218 218 216 216 213
44 38 33 27 19 9 359 352 349 346 343 339 324 304 290 281 275 267 259 254 250 247 245 241 235 231 227 227 236 239 254 278 275 292 257 236 235 237 238 240 243 245 246 248 248 246 245 244 243 241 238 238 236 234 233 232 231 230 227 223 221 218 215 215 214 215 216 215 216 218 223 228 226 219 213 216 221 219 219 221 220 220 217 215 214
40 34 32 31 30 26 17 7 359 354 349 344 339 328 310 296 286 277 271 265 256 250 250 250 244 237 233 234 238 246 263 272 239 274 304 255 237 236 237 239 241 244 247 248 249 247 246 244 244 243 241 239 239 237 235 233 231 230 228 226 225 224 223 219 214 213 211 209 212 216 220 227 226 218 210 213 218 218 220 220 220 221 218 216 214
38 29 23 21 23 26 26 21 14 6 0 354 347 340 328 314 302 291 284 275 263 256 253 253 250 247 244 241 242 247 256 261 261 264 280 287 259 241 238 239 241 243 246 247 247 247 246 245 243 243 242 241 240 239 237 235 233 230 228 227 226 227 228 223 216 212 210 209 215 218 217 221 225 220 211 211 215 217 217 217 218 219 217 215 214
41 33 27 23 19 16 16 18 16 11 4 358 352 346 340 330 321 312 304 294 282 270 262 258 256 256 255 251 249 251 254 258 262 265 264 265 273 254 240 240 240 242 243 245 246 246 246 246 246 245 244 243 242 241 239 237 234 231 228 227 225 226 228 225 219 215 213 212 217 218 212 214 222 222 214 211 215 216 213 212 214 214 213 213 213
41 36 32 28 23 17 12 7 3 1 357 353 349 344 341 336 329 323 316 310 302 291 280 272 266 262 260 259 257 255 256 258 258 260 262 256 253 260 249 237 237 245 246 245 246 245 244 245 245 246 245 244 243 242 241 239 236 233 230 228 226 224 225 224 220 218 218 216 216 217 215 215 219 220 216 214 215 215 211 210 210 209 209 210 211
43 40 37 32 29 23 16 7 355 350 348 345 342 336 333 330 327 324 320 316 312 306 298 289 280 273 267 263 261 258 256 255 254 254 253 250 255 265 257 247 243 249 251 250 248 245 244 244 243 244 244 243 243 243 242 241 238 235 231 229 228 225 224 224 222 221 221 220 221 225 227 225 222 221 219 217 218 218 214 211 208 206 205 205 207
42 41 39 35 33 29 22 13 1 352 346 340 337 334 330 326 324 322 320 318 314 311 307 301 294 286 279 273 268 265 260 258 257 255 252 254 258 263 266 263 255 252 254 255 253 248 245 243 243 244 244 244 243 244 244 243 241 238 233 229 229 228 225 224 225 224 224 225 226 230 234 234 232 230 225 219 219 221 218 214 211 207 205 204 204
39 39 38 37 36 34 30 25 16 7 357 349 343 339 336 334 331 327 323 320 317 315 310 307 303 296 291 286 279 274 269 266 264 259 256 256 256 260 267 265 258 262 262 257 255 255 249 245 245 245 244 244 243 243 243 244 243 241 236 232 229 229 227 226 227 228 228 229 231 234 237 238 238 237 233 225 220 221 221 217 214 211 208 205 204
38 36 35 34 35 34 33 31 28 23 16 9 0 351 343 337 336 334 330 326 322 319 315 310 306 301 297 294 289 284 281 279 274 267 262 257 254 256 264 264 257 259 266 259 252 250 249 248 248 246 244 244 243 242 242 243 244 242 239 236 232 230 229 228 229 231 232 233 234 236 238 239 239 237 237 231 220 218 221 218 215 215 212 209 207
35 33 30 29 28 28 27 26 25 24 21 18 13 6 358 348 341 335 331 329 326 321 319 315 311 308 303 299 296 292 290 288 285 278 271 264 259 257 257 262 264 258 257 259 251 243 245 249 250 246 243 243 243 242 242 243 244 243 240 238 237 234 231 230 231 232 234 235 235 237 238 239 238 237 238 233 222 217 220 218 215 215 214 211 210
27 25 23 22 21 20 20 18 17 15 14 13 11 9 6 0 354 346 339 334 329 322 319 316 314 312 309 305 302 298 295 293 291 288 282 274 268 264 258 253 259 266 261 258 253 248 247 246 248 249 246 245 245 243 242 243 244 243 241 239 238 237 235 233 233 233 235 236 235 236 237 236 237 237 237 233 224 217 217 218 216 214 213 212 210
19 17 15 14 14 13 12 11 9 7 6 4 3 1 360 359 357 353 349 343 334 327 323 318 314 312 309 307 306 303 302 299 295 292 290 284 277 271 264 257 254 258 267 266 255 245 246 242 242 248 249 248 247 244 242 242 243 242 240 239 239 238 237 236 235 234 235 236 235 234 235 235 235 236 235 232 226 220 217 218 217 214 213 212 210
13 11 9 8 7 6 5 4 2 1 359 358 356 353 351 350 349 348 346 344 338 334 331 325 320 316 311 307 305 303 303 302 300 297 294 290 285 278 272 265 259 253 258 272 264 249 246 243 243 247 250 251 248 245 243 242 243 242 240 239 239 239 238 237 236 235 234 236 236 235 234 234 233 232 231 229 226 221 217 218 218 215 213 211 209
7 6 4 2 1 360 358 357 356 354 353 352 350 348 345 343 342 340 339 337 335 333 332 330 326 322 317 312 308 305 302 299 299 299 297 294 290 284 278 271 264 258 256 263 271 259 248 246 250 251 252 253 251 246 243 242 242 241 240 239 240 240 239 237 236 236 235 236 237 237 236 235 233 230 227 225 224 221 217 216 217 214 211 209 206
1 1 360 358 356 354 352 350 349 347 346 344 344 342 339 337 335 333 332 331 329 326 326 326 325 323 320 317 314 310 306 302 297 295 295 294 293 288 283 276 269 264 259 256 263 266 257 255 260 259 256 255 252 247 243 242 241 241 240 240 240 239 238 237 236 235 234 235 236 237 237 235 233 229 224 223 223 222 217 215 214 212 211 209 207
356 354 353 352 350 347 345 343 341 340 338 337 336 335 332 330 329 327 326 325 323 321 320 318 319 319 317 315 314 312 311 307 301 298 294 291 291 288 284 279 272 267 262 256 258 270 267 261 261 261 258 253 249 246 242 240 240 239 239 240 239 238 237 236 236 234 233 233 234 236 237 236 234 231 226 223 224 224 220 216 214 212 212 212 211
350 348 346 344 342 340 338 336 334 332 330 329 328 327 326 325 323 322 321 320 318 316 314 312 312 313 312 309 308 309 310 307 303 301 297 293 290 286 282 279 274 270 265 258 258 266 270 265 260 259 258 251 247 246 242 239 240 240 239 238 237 237 237 236 235 234 233 232 232 234 236 236 235 233 229 226 225 225 223 220 217 214 213 214 214
344 342 341 339 337 334 332 330 329 327 325 324 322 321 320 319 319 318 316 315 313 311 309 307 306 306 305 303 301 302 304 302 300 299 298 294 291 286 282 278 273 271 267 261 258 261 268 270 263 257 256 251 249 248 245 242 242 239 238 238 237 237 236 234 233 234 233 231 230 232 234 235 235 235 232 229 227 227 227 224 221 218 215 214 214
338 336 335 333 332 330 328 326 325 323 322 322 320 318 317 316 315 313 313 311 309 307 304 302 301 301 300 297 296 296 296 294 293 293 293 292 290 286 283 279 274 271 268 263 259 259 264 270 265 258 256 254 254 252 247 241 238 235 235 235 235 234 234 232 231 232 232 231 230 231 232 233 233 234 232 231 229 228 228 227 224 220 217 217 216
334 332 331 330 328 326 325 323 322 321 320 319 317 315 314 313 312 310 310 308 307 305 302 299 298 296 295 293 292 293 291 288 287 287 287 287 286 284 281 279 277 274 270 264 260 258 259 263 265 263 257 254 254 252 245 237 232 231 232 233 232 232 232 231 230 230 230 230 230 230 232 232 234 234 232 231 230 227 227 229 226 220 218 220 217
329 328 327 327 326 323 321 320 318 317 317 315 313 311 311 311 311 310 308 306 304 302 300 297 295 293 291 290 289 288 286 283 282 283 283 282 281 279 278 278 277 275 272 267 262 258 256 259 264 264 257 252 249 248 245 238 230 227 228 230 231 230 229 229 229 229 229 229 228 228 228 230 232 232 231 229 229 228 227 229 228 222 220 221 217
324 323 323 323 321 320 318 317 316 315 314 312 309 309 309 310 310 309 307 305 303 300 298 295 293 292 289 287 287 285 282 280 279 279 279 279 277 276 275 276 275 273 270 268 265 260 256 258 260 260 258 253 247 246 247 240 232 229 225 222 224 226 226 227 228 228 228 228 228 227 227 228 229 229 228 227 229 229 228 228 229 225 222 221 220
320 320 320 319 317 316 314 313 313 312 311 310 308 309 310 310 309 307 304 302 301 299 297 295 293 292 289 287 285 283 280 278 277 276 276 275 274 274 273 272 271 269 267 266 264 260 257 258 258 258 257 253 245 242 241 232 225 227 225 218 218 221 221 225 227 227 227 227 225 224 224 225 226 226 226 226 229 229 227 226 228 226 221 221 224
318 317 316 315 314 313 311 311 310 310 309 307 307 310 311 311 309 306 303 300 298 296 295 294 292 291 289 288 286 283 281 278 276 275 274 272 271 270 271 270 268 266 264 263 261 259 257 257 258 257 253 249 241 234 229 222 221 226 224 217 221 223 220 223 228 228 227 226 224 223 221 221 222 223 224 225 226 225 223 224 225 223 221 223 225
315 315 314 313 312 310 310 309 308 308 306 305 306 309 310 309 308 306 303 300 297 295 292 291 290 289 288 287 286 285 284 282 279 276 274 273 270 268 268 268 265 264 263 261 258 256 255 255 256 255 250 248 243 232 228 229 228 228 222 215 219 221 214 220 232 231 227 224 222 223 222 220 219 221 222 224 225 222 220 220 220 220 221 224 225
314 314 312 311 310 309 309 308 307 306 304 304 307 310 309 308 307 306 304 301 298 295 292 289 288 288 287 286 285 285 285 284 283 281 278 275 272 269 268 267 265 262 259 258 257 254 252 252 255 255 250 250 249 239 233 234 230 225 223 219 216 213 206 211 229 231 226 221 217 221 225 221 219 220 222 224 224 222 220 220 219 220 222 223 223
313 312 310 309 308 307 308 306 305 304 302 304 309 309 307 307 307 305 302 299 297 294 292 289 287 287 286 286 285 284 283 283 282 282 281 279 276 273 271 269 266 263 259 257 256 253 250 250 252 253 249 250 253 247 237 233 228 224 225 222 217 214 211 214 221 226 225 217 210 216 226 224 219 221 224 224 224 223 222 221 220 221 222 222 222
311 309 308 307 305 306 307 305 304 302 302 305 309 308 307 307 306 305 301 296 293 291 289 288 287 286 286 287 287 285 283 282 282 281 281 281 281 279 275 271 268 265 262 259 256 254 251 249 249 252 250 250 253 251 244 236 227 222 221 222 222 219 218 222 225 226 224 211 204 210 225 225 219 220 224 225 224 223 222 222 221 221 222 222 223
309 307 306 306 305 305 305 305 304 302 302 306 309 307 306 306 305 303 299 294 292 290 288 287 287 287 286 286 286 285 284 283 282 281 282 282 283 281 278 273 269 265 263 260 257 255 252 249 248 251 252 251 251 253 252 243 232 225 221 221 223 222 223 229 231 229 228 219 209 207 222 226 218 217 224 225 222 222 223 222 221 221 222 222 223
306 305 305 304 304 305 306 305 304 301 301 306 308 305 305 305 304 302 298 294 292 290 288 288 288 287 286 285 284 283 283 283 282 281 282 282 282 280 277 273 270 266 263 260 258 255 253 250 248 250 252 252 251 252 253 248 241 237 232 229 229 227 227 233 235 230 228 224 213 204 219 228 215 213 223 224 220 222 223 222 221 221 220 221 222
305 304 303 303 303 304 305 305 303 301 302 305 307 305 305 305 304 301 298 294 291 289 288 288 288 287 286 286 285 284 283 283 282 281 281 281 281 280 278 276 272 268 263 260 259 257 256 254 252 252 254 254 252 251 251 248 245 243 238 234 231 227 225 229 232 228 225 220 211 207 219 230 212 211 222 222 217 221 223 221 221 220 218 218 220
305 304 303 302 302 302 302 303 302 301 302 305 306 305 305 304 302 300 296 292 290 288 288 289 289 289 288 287 287 287 286 285 285 284 282 280 279 278 278 277 276 273 269 264 261 259 258 257 256 255 257 257 255 253 252 249 246 243 235 228 225 222 220 224 230 229 224 218 211 209 216 227 214 211 218 218 216 220 222 221 220 218 216 216 215
304 302 301 300 300 300 300 301 301 301 301 304 306 305 303 302 299 297 294 290 289 288 288 289 289 289 288 288 288 288 288 288 288 288 286 282 279 277 276 276 276 274 271 268 265 262 259 258 257 256 256 256 255 254 252 250 247 241 233 228 226 223 220 223 230 230 225 223 217 209 212 226 218 206 205 207 213 219 220 221 220 216 214 213 211
302 301 300 299 299 299 299 299 300 300 300 304 306 304 302 300 297 295 292 288 287 288 289 290 290 290 290 290 290 289 288 288 288 288 287 283 278 274 272 273 274 272 270 270 269 266 261 257 255 254 254 254 253 252 250 249 247 241 235 233 230 225 222 227 230 227 225 231 222 207 206 221 214 197 192 188 198 221 219 217 218 214 211 209 207
Height
830 831 832 832 833 834 835 835 836 837 838 838 839 839 839 840 840 841 842 842 842 843 843 843 844 844 845 845 846 846 846 846 847 847 847 847 847 847 847 847 846 846 847 847 847 848 848 848 849 849 849 849 850 850 849 850 850 850 850 850 850 850 849 849 849 850 849 849 849 849 849 849 849 849 849 849 849 849 849 849 849 849 849 849 848
829 830 831 832 833 834 834 835 836 836 837 838 838 839 839 839 840 840 841 841 841 842 842 843 843 844 844 845 845 845 845 845 846 846 846 846 846 847 846 846 846 846 846 846 846 847 848 848 848 849 849 849 849 849 849 849 850 850 850 850 850 850 849 849 849 850 849 849 849 849 849 849 849 849 849 849 849 849 849 849 849 849 849 849 849
828 829 830 831 832 833 833 834 835 836 837 837 838 839 839 839 839 840 841 841 841 842 842 842 842 843 843 844 844 845 845 845 845 846 846 846 846 846 846 846 846 846 846 846 846 846 847 848 848 848 849 849 849 849 849 849 849 849 849 849 849 849 849 849 849 849 849 849 849 849 849 849 849 849 849 849 850 850 850 850 849 849 849 849 848
827 828 829 830 831 832 832 833 834 835 836 837 838 838 838 839 839 840 840 841 842 841 841 842 842 842 842 843 843 844 844 844 845 845 845 845 845 845 845 845 845 845 845 845 845 846 846 847 848 847 847 848 848 849 849 849 848 848 849 849 849 849 849 849 849 849 849 849 849 849 849 849 849 849 849 849 850 850 850 850 850 849 849 849 848
825 826 827 828 829 830 831 831 833 834 835 836 837 838 838 838 839 840 840 840 841 841 841 841 841 842 842 842 842 843 843 843 843 844 844 844 844 844 844 844 844 844 844 844 845 845 845 846 846 845 846 846 847 847 848 848 848 848 848 848 849 849 849 849 849 849 849 849 849 849 849 849 849 849 849 849 849 850 850 850 850 849 849 849 849
823 825 826 827 828 829 829 830 832 833 834 835 836 837 837 838 838 839 840 840 840 841 840 840 841 841 841 841 841 842 842 842 842 843 843 843 843 843 843 843 843 843 843 843 843 844 844 844 844 845 845 846 846 846 847 847 847 847 848 848 848 849 849 849 849 849 849 849 849 849 849 849 849 849 849 849 849 849 850 850 850 849 849 849 849
822 823 824 825 826 827 828 829 830 832 833 834 835 835 836 837 837 839 839 840 840 840 840 840 840 840 840 840 840 841 841 841 841 841 842 842 842 842 842 842 842 842 842 842 842 842 843 843 843 844 844 845 845 845 846 846 846 847 847 847 848 848 848 848 848 849 848 849 849 849 849 849 849 849 849 849 849 849 849 849 849 849 849 849 849
821 821 823 824 824 825 827 828 829 830 831 832 833 834 834 835 836 837 838 839 839 840 840 840 840 839 839 839 839 839 839 839 840 840 840 840 840 840 840 840 840 841 841 841 841 841 841 842 842 842 843 844 844 844 844 845 845 845 846 846 847 847 847 848 848 848 848 848 848 849 849 848 849 849 849 849 849 849 849 849 849 849 849 849 849
820 820 821 822 823 824 825 826 828 829 830 831 832 832 833 834 835 836 836 837 838 838 839 839 839 839 839 838 838 838 837 838 838 838 838 838 838 838 838 838 839 839 839 839 839 840 840 840 841 841 841 842 842 842 843 843 844 844 845 845 846 846 847 847 847 847 847 847 848 848 848 848 848 848 848 848 849 849 849 849 849 849 849 848 848
819 820 820 821 822 823 824 825 826 827 829 829 830 831 832 833 834 835 835 836 836 837 837 838 838 839 839 838 837 837 837 837 837 837 836 836 836 836 836 836 837 837 837 837 838 838 838 839 839 839 840 840 841 841 841 842 843 843 844 845 845 846 846 845 845 846 846 846 847 847 847 847 847 847 848 848 848 848 848 848 848 848 848 848 848
820 820 820 821 821 822 823 824 825 826 827 828 829 830 831 832 833 834 834 835 836 836 837 838 839 839 839 838 837 837 836 836 836 835 835 834 834 834 834 834 835 835 835 835 836 836 836 837 837 838 838 839 839 839 840 841 841 842 843 844 844 845 845 844 845 845 845 846 847 847 847 847 847 847 847 847 847 847 847 848 848 848 848 848 848
820 821 821 821 821 822 822 823 824 825 825 826 827 828 829 830 831 832 833 834 835 836 837 837 838 838 839 838 837 836 835 835 834 834 834 833 833 833 833 833 833 832 833 834 834 834 834 835 835 836 836 837 837 837 838 839 839 840 841 842 843 844 844 844 844 845 845 846 846 846 846 846 846 847 847 846 846 846 846 847 847 847 847 847 847
821 821 822 822 822 823 823 823 823 824 825 825 826 827 828 829 830 831 832 833 834 835 836 837 838 838 838 838 837 836 834 833 833 832 831 831 831 831 831 831 831 831 831 832 832 832 832 833 833 834 834 834 835 835 836 836 837 838 839 839 840 841 843 843 843 844 844 845 845 846 846 846 846 846 846 846 846 846 845 846 846 846 846 846 847
821 821 822 822 823 824 824 824 825 825 825 825 826 827 827 829 829 830 831 832 832 833 834 836 837 837 838 838 836 835 833 832 831 829 829 829 829 829 829 829 829 829 830 830 830 830 831 831 832 832 832 832 833 833 833 834 834 835 836 837 838 839 840 842 842 843 844 844 844 845 845 845 845 845 845 845 845 845 845 845 845 845 845 845 846
821 822 822 823 823 824 825 825 826 826 826 826 826 827 827 828 829 830 830 831 832 833 833 834 835 837 838 838 836 835 832 830 828 827 827 828 827 827 827 827 827 827 828 827 827 828 828 829 829 829 830 830 831 831 831 832 832 833 833 834 835 836 837 839 840 841 842 843 843 843 844 844 844 844 844 844 844 844 844 844 844 844 844 844 845
822 822 823 823 823 824 825 825 826 827 827 828 828 828 828 828 829 829 830 830 831 831 832 833 833 835 837 837 837 836 831 827 825 824 825 826 825 825 825 825 825 826 826 825 825 826 827 827 827 827 827 828 828 829 829 830 831 831 831 832 832 833 834 836 838 839 840 841 841 842 842 842 842 842 842 843 843 843 843 843 843 843 843 844 844
822 823 823 824 824 824 825 825 826 827 827 828 828 829 829 829 829 830 830 830 830 830 831 832 832 833 833 833 835 834 829 826 825 822 822 823 822 823 823 823 823 824 824 823 824 824 824 825 825 826 825 825 826 826 827 828 829 829 830 830 830 831 831 833 835 836 837 838 839 840 840 841 840 840 841 841 841 842 842 842 842 842 843 843 843
823 823 823 824 824 824 825 825 826 826 827 827 828 828 829 829 829 829 830 830 830 830 830 831 831 830 831 830 830 829 827 827 826 822 820 820 820 821 821 821 821 822 822 822 822 822 822 823 823 823 824 824 824 824 824 825 826 827 828 829 829 829 830 831 832 833 834 835 837 838 838 839 839 838 839 840 840 840 841 841 841 842 842 842 842
823 824 824 824 824 825 825 825 826 826 827 827 827 828 828 828 829 829 829 829 830 830 829 830 830 829 829 829 828 827 827 828 827 824 821 818 818 819 819 819 820 820 819 819 819 820 820 820 820 821 821 822 822 822 822 822 823 824 825 826 827 828 828 829 830 831 832 833 834 835 836 837 837 837 837 837 838 839 839 840 840 840 841 841 841
824 825 825 825 825 825 825 826 826 826 827 827 827 827 827 827 827 828 828 828 828 828 828 829 828 828 828 828 827 827 827 827 827 826 824 819 817 817 817 817 818 818 817 816 816 817 817 817 818 818 818 819 819 820 820 820 821 821 821 823 824 826 827 827 828 829 829 831 832 833 834 835 835 835 835 835 836 836 837 838 838 839 839 840 840
825 826 826 826 826 826 826 826 826 826 826 827 827 827 827 826 826 826 826 827 827 827 827 827 827 826 827 826 825 825 825 825 825 826 825 822 818 816 816 816 815 814 813 813 813 813 813 814 815 816 816 816 816 817 818 818 818 819 819 820 821 823 824 826 826 826 827 828 830 832 832 832 834 834 833 833 834 834 835 835 836 837 838 838 839
826 827 827 827 827 827 826 826 826 826 826 826 826 826 826 826 825 825 825 825 825 826 825 825 825 825 825 825 824 824 824 823 823 823 823 821 818 816 815 815 813 811 810 809 809 809 810 811 812 812 813 813 813 814 814 815 815 816 817 817 818 820 821 823 823 824 824 826 827 829 829 830 831 832 832 832 832 832 833 833 834 834 835 836 837
828 827 827 827 827 827 827 827 827 826 826 825 825 825 825 825 824 824 824 824 824 824 824 824 824 823 823 823 822 822 822 820 820 821 820 819 817 815 813 813 811 809 808 807 806 806 807 807 808 808 808 809 810 810 811 812 812 813 814 815 816 817 818 819 820 821 822 823 824 826 827 828 829 830 831 831 831 831 831 831 831 832 833 834 835
829 828 828 828 827 827 827 827 827 827 826 826 826 825 824 824 823 823 823 823 823 822 822 822 822 821 821 820 820 819 819 818 818 819 817 817 816 813 811 812 810 806 806 805 804 803 803 803 804 804 804 805 806 807 807 808 809 810 811 812 813 814 815 816 817 818 819 820 821 823 824 826 827 828 829 829 830 831 830 830 830 830 830 831 832
831 830 830 829 828 828 827 827 827 827 826 826 825 825 824 824 823 822 822 822 821 821 820 820 820 820 819 818 818 817 816 816 816 816 815 815 814 811 810 811 808 805 804 803 801 800 799 799 800 800 800 801 802 803 804 804 805 807 809 809 810 810 811 813 813 815 816 816 818 820 821 823 824 825 826 827 829 829 829 829 829 829 829 830 830
834 833 832 831 830 830 829 828 828 827 826 826 825 824 824 823 823 822 821 821 820 820 819 819 818 818 817 816 815 814 814 814 814 814 813 813 812 810 809 808 805 803 802 801 799 797 796 796 797 796 797 797 798 799 799 800 801 803 805 806 806 807 808 809 810 810 812 813 814 816 817 819 821 822 824 825 826 827 828 828 828 828 828 828 829
836 835 834 833 832 831 830 829 828 827 827 826 825 824 823 823 822 822 821 820 820 818 818 817 816 816 815 814 813 812 811 812 811 811 811 811 809 809 809 807 803 801 799 798 795 793 792 793 793 792 793 793 794 795 795 796 797 799 802 803 803 804 805 805 806 806 807 808 810 811 813 815 817 819 821 822 823 825 826 826 826 827 827 827 827
837 836 835 833 832 832 831 830 829 828 827 826 825 825 824 823 822 821 820 819 819 817 817 816 815 814 813 812 811 809 809 809 808 808 808 808 807 807 807 806 804 800 797 794 791 789 789 790 790 788 789 790 789 790 791 792 793 795 797 798 799 800 801 802 803 803 803 804 805 806 808 811 813 815 817 819 820 822 823 824 824 825 825 825 825
837 836 835 834 832 832 831 830 829 828 828 827 826 825 824 823 822 821 820 819 818 817 816 814 813 812 811 810 808 807 806 806 805 805 804 804 804 804 804 804 804 800 796 791 786 784 785 786 785 784 786 786 786 786 787 787 788 790 792 793 794 795 797 798 799 800 800 800 801 802 803 805 808 810 812 815 817 818 820 821 822 822 823 823 823
836 835 834 833 832 831 830 829 829 828 828 826 825 824 823 822 821 820 819 818 817 816 815 813 812 810 808 807 806 805 804 803 802 802 801 801 800 800 800 800 801 799 795 791 784 779 781 781 780 781 782 782 782 782 782 783 784 786 787 788 789 790 792 794 796 797 798 798 798 798 799 801 802 804 807 809 812 814 816 818 819 819 820 821 821
836 834 833 832 830 830 829 828 827 827 826 825 825 824 823 822 820 819 818 817 816 814 813 812 810 808 806 805 804 803 802 801 799 798 798 797 797 796 796 796 797 795 793 793 784 775 777 778 776 777 779 778 779 779 778 779 780 781 782 783 784 785 788 790 792 793 795 795 795 795 796 797 798 800 802 804 807 809 812 814 815 816 817 817 817
836 834 833 832 830 829 828 827 825 824 823 823 822 821 820 819 818 817 816 815 814 812 811 810 808 807 804 803 801 800 799 798 797 796 795 794 793 792 792 792 792 791 791 791 784 773 774 777 774 775 776 776 775 774 774 775 777 777 778 778 780 781 783 785 787 789 790 791 792 792 793 794 795 796 798 799 801 804 806 809 811 812 813 813 814
835 833 833 832 830 829 828 827 826 824 822 821 820 819 817 816 815 814 813 812 811 809 808 807 805 804 802 800 799 798 797 795 794 793 792 791 790 788 788 787 787 787 788 788 782 773 771 774 773 772 773 773 771 770 770 771 773 774 774 774 775 776 778 779 781 783 785 787 788 789 790 790 791 793 794 796 797 799 801 803 806 808 809 810 810
834 833 832 831 830 829 828 826 825 824 823 821 820 818 816 814 812 811 810 809 807 806 805 803 802 802 800 798 796 795 794 792 791 790 789 788 787 785 784 783 782 782 784 783 780 774 768 769 771 770 770 769 767 766 766 767 768 769 769 769 770 771 772 774 775 777 779 782 784 785 787 787 788 789 790 792 794 795 797 799 801 802 804 806 807
833 832 831 829 828 827 826 824 823 822 820 819 818 816 814 812 810 808 807 806 805 803 802 800 799 798 797 795 793 792 791 789 787 787 786 785 784 782 780 779 778 777 778 779 777 773 767 765 767 766 765 765 763 762 763 763 764 765 765 764 765 765 766 767 769 772 774 777 779 781 783 784 785 786 787 788 790 792 794 796 797 798 800 801 803
831 830 829 828 826 825 823 821 820 818 817 815 814 812 811 810 808 806 805 803 802 800 799 797 796 795 793 790 788 788 787 785 782 782 782 781 781 779 777 776 774 772 773 773 772 770 766 763 761 762 762 762 760 759 760 760 760 761 760 761 761 761 761 762 764 766 769 773 775 777 779 780 781 782 783 784 785 787 790 792 794 796 796 797 798
829 828 826 825 824 822 820 819 817 815 814 812 810 809 808 807 806 804 803 801 800 798 796 794 792 791 789 786 784 783 782 780 778 777 777 777 776 775 773 772 771 769 768 768 767 766 764 760 757 758 759 758 756 756 756 756 757 757 757 757 758 758 758 759 760 762 765 769 771 773 774 776 777 778 779 780 781 783 785 788 791 793 793 794 795
827 825 824 822 821 819 817 816 814 812 810 809 807 806 805 804 803 802 800 799 797 795 793 791 789 788 786 783 780 779 778 776 774 772 772 772 771 770 769 768 767 766 765 764 763 762 760 756 754 754 754 753 753 752 752 752 753 753 753 753 754 755 755 756 757 758 761 763 765 767 769 770 772 774 775 776 777 778 780 783 786 788 790 790 791
825 823 822 820 818 816 814 813 811 809 807 805 804 803 802 802 801 799 797 795 793 791 789 787 785 784 781 779 776 775 774 772 770 769 768 768 767 765 765 764 763 763 761 759 759 758 755 752 750 749 749 749 749 749 748 749 750 748 747 748 749 750 751 752 752 753 755 757 759 761 763 765 768 770 772 774 774 774 776 777 780 783 785 786 787
823 822 820 818 815 814 812 810 808 806 804 802 800 800 800 799 798 796 794 792 789 787 784 782 780 779 776 775 772 770 769 768 767 765 764 764 763 761 760 760 759 758 756 755 754 753 752 748 745 744 744 744 744 744 746 747 746 742 741 743 744 745 746 747 747 749 750 751 752 755 757 760 763 765 767 769 770 770 771 772 774 777 779 781 782
820 819 817 815 813 810 809 807 805 803 801 798 797 797 797 796 794 792 790 788 785 782 779 776 774 773 771 769 767 766 765 763 762 761 760 760 759 756 754 754 754 753 752 750 749 749 747 745 741 740 739 738 738 739 741 740 738 737 739 742 741 740 742 744 744 745 746 747 748 750 751 753 756 759 762 763 764 765 767 767 768 771 773 776 777
817 815 813 811 809 808 806 803 801 800 797 795 794 795 795 793 791 788 785 783 780 778 775 771 768 766 765 763 761 760 759 758 757 755 754 753 753 751 749 748 748 748 746 745 744 743 743 740 737 736 735 732 731 733 734 734 735 737 738 738 737 738 742 743 740 739 740 743 746 746 747 748 751 753 755 755 757 760 761 761 762 764 767 769 772
814 811 809 807 805 804 803 800 798 795 793 792 792 792 791 790 788 786 782 778 775 772 770 766 763 760 758 757 756 754 753 751 750 748 747 746 745 744 743 742 742 742 741 740 738 737 737 736 733 732 731 727 725 727 729 730 732 734 733 733 734 736 737 736 733 732 733 736 741 743 743 745 747 747 747 748 750 753 754 753 755 758 760 764 766
810 808 806 804 802 801 800 798 795 792 789 789 790 789 786 785 785 783 779 774 770 767 764 761 758 754 752 750 749 748 746 745 744 742 741 739 738 738 737 736 735 735 735 734 732 731 731 730 728 726 725 722 720 722 724 725 727 728 729 730 730 729 729 728 725 724 724 729 736 739 739 740 743 742 740 739 742 745 747 749 750 752 755 758 761
807 805 803 801 799 798 798 795 792 788 786 786 787 785 782 781 781 778 775 770 766 762 758 755 753 750 747 745 742 740 739 738 738 737 735 734 733 732 731 730 729 728 727 727 726 726 725 725 723 719 718 718 717 717 719 720 721 722 723 724 724 724 724 721 718 719 722 725 731 734 733 733 735 735 732 732 735 739 741 744 747 748 750 752 755
804 801 799 797 795 795 794 792 789 785 783 784 784 781 779 778 776 773 770 765 761 757 753 750 748 746 744 741 738 735 733 733 733 732 731 730 728 727 726 724 722 721 720 720 719 719 719 719 717 713 711 713 713 712 715 717 716 715 716 716 718 719 719 716 716 719 721 719 721 726 725 722 726 728 726 726 731 733 735 738 741 744 745 746 749
802 799 796 794 792 791 790 789 786 781 780 782 781 777 775 774 771 769 765 761 757 752 748 746 744 742 739 737 734 731 728 727 728 728 728 726 724 722 720 718 716 714 713 713 713 712 712 712 711 707 705 707 708 708 710 712 711 709 710 711 712 714 715 714 715 716 715 712 715 719 717 713 718 721 719 721 727 728 728 731 735 738 740 742 744
799 796 794 792 790 788 786 786 783 778 776 778 777 773 772 770 767 764 761 757 753 748 743 741 740 737 735 733 730 728 725 722 723 724 724 723 720 717 714 711 709 707 705 705 706 706 705 705 705 702 700 700 702 703 705 706 706 706 707 708 709 710 711 710 709 709 709 708 710 712 710 709 714 715 713 717 723 723 724 726 728 731 735 736 738
795 793 791 789 788 786 783 782 781 775 771 773 773 770 768 766 763 760 757 753 748 744 740 738 736 733 731 729 727 724 721 718 718 719 720 719 716 713 709 706 704 701 698 698 698 698 699 699 698 697 695 694 696 697 698 700 701 703 704 703 703 705 705 704 702 701 703 703 703 705 706 706 708 709 711 715 718 718 720 721 722 726 730 732 734
791 790 788 786 784 784 781 779 778 774 768 768 769 766 763 762 759 756 753 749 745 741 737 734 732 730 726 725 725 722 718 715 714 714 715 714 712 708 705 701 699 695 692 692 692 692 693 693 692 691 689 688 689 691 691 692 695 697 697 695 696 699 700 697 694 695 699 698 696 700 702 701 702 706 710 714 715 714 715 717 720 723 727 730 733
788 786 786 783 780 780 778 775 774 772 766 763 764 762 759 758 756 753 749 745 740 737 734 731 728 727 724 721 721 719 716 712 711 710 709 709 707 703 701 698 694 688 686 687 687 686 686 686 684 683 681 680 681 683 684 684 686 688 688 687 689 692 692 689 689 693 693 689 687 693 698 697 698 703 706 709 712 711 711 713 716 719 723 726 729